EN

Hourly Weather La Cruz de La India

Today, 5 August, Thursday

Time Temperature Precipitation Wind Pressure Humidity
00:00 +24°C° 0.8 mm 1 mps 721 mmHg 93%
01:00 +24°C° 0.3 mm 1 mps 721 mmHg 94%
02:00 +23°C° 0.3 mm 1 mps 721 mmHg 94%
03:00 +23°C° 0.3 mm 1 mps 721 mmHg 95%
04:00 +23°C° 0 mm 1 mps 721 mmHg 94%
05:00 +23°C° 0 mm 1 mps 721 mmHg 94%
06:00 +23°C° 0 mm 1 mps 721 mmHg 94%
07:00 +25°C° 0 mm 1 mps 722 mmHg 85%
08:00 +27°C° 0 mm 1 mps 722 mmHg 76%
09:00 +29°C° 0 mm 1 mps 723 mmHg 66%
10:00 +30°C° 0.2 mm 1 mps 722 mmHg 61%
11:00 +32°C° 0.2 mm 1 mps 722 mmHg 56%
12:00 +33°C° 0.2 mm 1 mps 721 mmHg 51%
13:00 +32°C° 0.4 mm 1 mps 721 mmHg 55%
14:00 +31°C° 0.4 mm 1 mps 720 mmHg 59%
15:00 +30°C° 0.4 mm 1 mps 719 mmHg 63%
16:00 +29°C° 1.7 mm 1 mps 720 mmHg 71%
17:00 +27°C° 1.7 mm 1 mps 720 mmHg 80%
18:00 +25°C° 1.7 mm 1 mps 720 mmHg 88%
19:00 +25°C° 2.3 mm 1 mps 720 mmHg 90%
20:00 +24°C° 2.3 mm 1 mps 721 mmHg 92%
21:00 +24°C° 2.3 mm 1 mps 721 mmHg 93%
22:00 +24°C° 0.3 mm 1 mps 721 mmHg 93%
23:00 +24°C° 0.3 mm 1 mps 721 mmHg 93%

Tomorrow, 6 August, Friday

Time Temperature Precipitation Wind Pressure Humidity
00:00 +24°C° 0.3 mm 1 mps 721 mmHg 93%
01:00 +23°C° 0 mm 1 mps 721 mmHg 93%
02:00 +23°C° 0 mm 1 mps 721 mmHg 93%
03:00 +23°C° 0 mm 1 mps 720 mmHg 94%
04:00 +23°C° 0 mm 1 mps 721 mmHg 93%
05:00 +23°C° 0 mm 1 mps 721 mmHg 93%
06:00 +23°C° 0 mm 1 mps 721 mmHg 93%
07:00 +25°C° 0 mm 1 mps 721 mmHg 84%
08:00 +27°C° 0 mm 1 mps 722 mmHg 75%
09:00 +29°C° 0 mm 1 mps 722 mmHg 66%
10:00 +30°C° 0.2 mm 2 mps 722 mmHg 62%
11:00 +31°C° 0.2 mm 2 mps 721 mmHg 58%
12:00 +32°C° 0.2 mm 2 mps 721 mmHg 54%
13:00 +32°C° 0.7 mm 2 mps 721 mmHg 58%
14:00 +31°C° 0.7 mm 2 mps 720 mmHg 61%
15:00 +30°C° 0.7 mm 2 mps 720 mmHg 65%
16:00 +29°C° 0.4 mm 2 mps 720 mmHg 69%
17:00 +27°C° 0.4 mm 2 mps 720 mmHg 74%
18:00 +26°C° 0.4 mm 2 mps 720 mmHg 79%
19:00 +25°C° 0 mm 2 mps 721 mmHg 80%
20:00 +25°C° 0 mm 2 mps 721 mmHg 81%
21:00 +24°C° 0 mm 1 mps 722 mmHg 82%
22:00 +24°C° 0 mm 1 mps 721 mmHg 83%
23:00 +23°C° 0 mm 1 mps 721 mmHg 85%

Day after tomorrow, 7 August, Saturday

Time Temperature Precipitation Wind Pressure Humidity
00:00 +23°C° 0 mm 1 mps 721 mmHg 86%
01:00 +23°C° 0 mm 1 mps 721 mmHg 86%
02:00 +22°C° 0 mm 1 mps 720 mmHg 87%
03:00 +21°C° 0 mm 2 mps 720 mmHg 87%
04:00 +22°C° 0 mm 1 mps 720 mmHg 87%
05:00 +22°C° 0 mm 1 mps 720 mmHg 87%
06:00 +22°C° 0 mm 1 mps 721 mmHg 87%
07:00 +25°C° 0 mm 2 mps 721 mmHg 77%
08:00 +27°C° 0 mm 2 mps 721 mmHg 67%
09:00 +29°C° 0 mm 2 mps 722 mmHg 56%
10:00 +31°C° 0 mm 3 mps 722 mmHg 52%
11:00 +33°C° 0 mm 3 mps 721 mmHg 48%
12:00 +34°C° 0 mm 4 mps 721 mmHg 44%
13:00 +31°C° 0.2 mm 3 mps 721 mmHg 53%
14:00 +30°C° 0.2 mm 3 mps 720 mmHg 61%
15:00 +28°C° 0.2 mm 3 mps 720 mmHg 70%
16:00 +27°C° 0.1 mm 3 mps 720 mmHg 74%
17:00 +25°C° 0.1 mm 3 mps 720 mmHg 78%
18:00 +24°C° 0.1 mm 2 mps 720 mmHg 83%
19:00 +24°C° 0 mm 2 mps 720 mmHg 83%
20:00 +23°C° 0 mm 2 mps 721 mmHg 83%
21:00 +23°C° 0 mm 2 mps 721 mmHg 83%
22:00 +23°C° 0 mm 2 mps 721 mmHg 84%
23:00 +23°C° 0 mm 2 mps 721 mmHg 84%

8 August, Sunday

Time Temperature Precipitation Wind Pressure Humidity
00:00 +21°C° 0 mm 2 mps 721 mmHg 85%
01:00 +21°C° 0 mm 2 mps 721 mmHg 86%
02:00 +21°C° 0 mm 2 mps 721 mmHg 86%
03:00 +21°C° 0 mm 2 mps 720 mmHg 86%
04:00 +21°C° 0 mm 2 mps 720 mmHg 85%
05:00 +23°C° 0 mm 1 mps 720 mmHg 84%
06:00 +23°C° 0 mm 1 mps 721 mmHg 83%
07:00 +24°C° 0 mm 1 mps 721 mmHg 79%
08:00 +25°C° 0 mm 1 mps 721 mmHg 75%
09:00 +26°C° 0 mm 1 mps 722 mmHg 71%
10:00 +28°C° 0.1 mm 1 mps 722 mmHg 65%
11:00 +30°C° 0.1 mm 1 mps 722 mmHg 59%
12:00 +32°C° 0.1 mm 1 mps 722 mmHg 53%
13:00 +31°C° 0.4 mm 1 mps 721 mmHg 55%
14:00 +31°C° 0.4 mm 2 mps 721 mmHg 56%
15:00 +31°C° 0.4 mm 2 mps 720 mmHg 58%
16:00 +29°C° 0.3 mm 2 mps 720 mmHg 64%
17:00 +28°C° 0.3 mm 2 mps 720 mmHg 71%
18:00 +26°C° 0.3 mm 2 mps 720 mmHg 78%
19:00 +26°C° 0.3 mm 2 mps 721 mmHg 80%
20:00 +25°C° 0.3 mm 2 mps 721 mmHg 83%
21:00 +24°C° 0.3 mm 2 mps 722 mmHg 86%
22:00 +24°C° 0.1 mm 2 mps 722 mmHg 87%
23:00 +24°C° 0.1 mm 2 mps 722 mmHg 88%

9 August, Monday

Time Temperature Precipitation Wind Pressure Humidity
00:00 +23°C° 0.1 mm 1 mps 721 mmHg 88%
01:00 +23°C° 0 mm 1 mps 721 mmHg 88%
02:00 +23°C° 0 mm 1 mps 721 mmHg 88%
03:00 +23°C° 0 mm 1 mps 720 mmHg 87%
04:00 +23°C° 0 mm 1 mps 720 mmHg 87%
05:00 +23°C° 0 mm 1 mps 721 mmHg 87%
06:00 +23°C° 0 mm 1 mps 721 mmHg 86%
07:00 +25°C° 0 mm 2 mps 721 mmHg 77%
08:00 +27°C° 0 mm 2 mps 722 mmHg 67%
09:00 +30°C° 0 mm 2 mps 722 mmHg 58%
10:00 +31°C° 0 mm 3 mps 722 mmHg 52%
11:00 +33°C° 0 mm 3 mps 721 mmHg 47%
12:00 +35°C° 0 mm 3 mps 721 mmHg 41%
13:00 +35°C° 0 mm 4 mps 721 mmHg 40%
14:00 +35°C° 0 mm 4 mps 720 mmHg 40%
15:00 +35°C° 0 mm 5 mps 720 mmHg 39%
16:00 +33°C° 0 mm 4 mps 720 mmHg 46%
17:00 +29°C° 0 mm 3 mps 720 mmHg 53%
18:00 +27°C° 0 mm 2 mps 720 mmHg 60%
19:00 +26°C° 0 mm 2 mps 720 mmHg 65%
20:00 +25°C° 0 mm 2 mps 721 mmHg 70%
21:00 +24°C° 0 mm 2 mps 721 mmHg 74%
22:00 +23°C° 0 mm 2 mps 721 mmHg 77%
23:00 +23°C° 0 mm 2 mps 721 mmHg 80%

10 August, Tuesday

Time Temperature Precipitation Wind Pressure Humidity
00:00 +23°C° 0 mm 2 mps 721 mmHg 83%
01:00 +21°C° 0 mm 2 mps 721 mmHg 85%
02:00 +21°C° 0 mm 2 mps 720 mmHg 86%
03:00 +21°C° 0 mm 2 mps 720 mmHg 88%
04:00 +21°C° 0 mm 2 mps 720 mmHg 88%
05:00 +21°C° 0 mm 2 mps 721 mmHg 87%
06:00 +20°C° 0 mm 2 mps 721 mmHg 86%
07:00 +24°C° 0 mm 2 mps 721 mmHg 75%
08:00 +27°C° 0 mm 2 mps 722 mmHg 63%
09:00 +30°C° 0 mm 2 mps 722 mmHg 51%
10:00 +31°C° 0 mm 3 mps 722 mmHg 47%
11:00 +34°C° 0 mm 3 mps 722 mmHg 43%
12:00 +35°C° 0 mm 4 mps 721 mmHg 38%
13:00 +35°C° 0 mm 4 mps 721 mmHg 39%
14:00 +35°C° 0 mm 4 mps 720 mmHg 40%
15:00 +34°C° 0 mm 4 mps 720 mmHg 41%
16:00 +33°C° 0 mm 4 mps 720 mmHg 48%
17:00 +30°C° 0 mm 3 mps 720 mmHg 55%
18:00 +28°C° 0 mm 3 mps 720 mmHg 63%
19:00 +27°C° 0 mm 2 mps 721 mmHg 67%
20:00 +26°C° 0 mm 2 mps 721 mmHg 71%
21:00 +25°C° 0 mm 2 mps 722 mmHg 74%
22:00 +25°C° 0 mm 2 mps 722 mmHg 77%
23:00 +24°C° 0 mm 1 mps 721 mmHg 79%
Show more